• Join FlightAware (Why Join?)
  • Login
  • US Flag 
11:07PM EST


 

Airport Tracker/Info


-or-


 

Live Flight TrackerFlight Track Log ✈ DAL1562 ✈ 07-Apr-2013 ✈ KGRR - KDTW

Flight Track Log - Related Links

Times and Time Zones

All times are in EDT time to prevent confusion due to time zone crossing. See the DAL1562 flight status page for this flight to view local times or setup timezone preferences in your user account.

Time Position Orientation Groundspeed Altitude Reporting Facility
EDT Latitude Longitude Course Direction KTS MPH feet Rate Location/Type
03:53PM 42.9447 -85.5144 73° East 263 303 5,600  Level Chicago Center
03:54PM 42.9681 -85.4067 73° East 289 333 8,300 2,565 Climbing Chicago Center
03:55PM 42.9900 -85.2883 76° East 313 360 10,900 1,935 Climbing Chicago Center
03:56PM 43.0189 -85.1531 74° East 362 417 12,300 1,887 Climbing Chicago Center
03:57PM 43.0500 -85.0033 74° East 402 463 14,800 1,306 Climbing Chicago Center
03:58PM 43.0672 -84.8453 81° East 353 406 15,000 97 Climbing Chicago Center
03:59PM 43.0744 -84.7097 86° East 355 409 15,000  Level Chicago Center
04:00PM 43.0819 -84.5764 86° East 353 406 15,000  Level Chicago Center
04:01PM 43.0908 -84.4419 85° East 354 407 15,000  Level Chicago Center
04:02PM 43.0947 -84.3564 86° East 354 407 15,000  Level Cleveland Center
04:03PM 43.1025 -84.2372 85° East 349 402 15,000  Level Cleveland Center
04:04PM 43.1089 -84.1039 86° East 349 402 15,000 -100 Level Cleveland Center
04:05PM 43.0600 -83.9931 121° Southeast 326 375 14,800 -800 Descending Cleveland Center
04:06PM 42.9917 -83.9128 139° Southeast 311 358 13,400 -1,537 Descending Cleveland Center
04:06PM 42.9572 -83.8742 141° Southeast 328 377 12,700 -1,400 Descending Cleveland Center
04:07PM 42.9169 -83.8236 137° Southeast 317 365 12,000 -627 Descending Cleveland Center
04:07PM 42.8844 -83.7908 144° Southeast 325 374 12,000  Level Cleveland Center
04:08PM 42.8483 -83.7467 138° Southeast 328 377 12,000  Level Cleveland Center
04:08PM 42.8094 -83.7133 148° Southeast 309 356 12,000 -200 Level Cleveland Center
04:09PM 42.7747 -83.6892 153° Southeast 316 364 11,800 -677 Descending Cleveland Center
04:09PM 42.7575 -83.6317 112° Southeast 282 325 11,300 -1,100 Descending Cleveland Center
04:10PM 42.7419 -83.5914 118° Southeast 279 321 10,700 -1,475 Descending Cleveland Center
04:10PM 42.7267 -83.5311 109° East 280 322 9,800 -1,500 Descending Cleveland Center
04:11PM 42.7150 -83.5025 119° Southeast 279 321 9,200 -980 Descending Cleveland Center
04:11PM 42.6839 -83.4925 167° South 237 273 9,000 -200 Descending Cleveland Center
04:12PM 42.6522 -83.5136 206° Southwest 177 204 9,000 -568 Level Cleveland Center
04:12PM 42.6200 -83.5489 219° Southwest 216 249 8,300 -1,000 Descending Cleveland Center
04:13PM 42.6028 -83.5650 215° Southwest 171 197 8,000 -1,102 Descending Cleveland Center
04:13PM 42.5836 -83.5836 216° Southwest 215 247 7,400 -1,400 Descending Cleveland Center
04:14PM 42.5467 -83.5678 162° South 199 229 6,600 -689 Descending Cleveland Center
04:15PM 42.5081 -83.4392 112° Southeast 222 255 6,000 -225 Descending Cleveland Center
04:17PM 42.5289 -83.3586 71° East 214 246 6,000 -89 Level Cleveland Center
04:18PM 42.5778 -83.3128 35° Northeast 208 239 5,800 -615 Descending Cleveland Center
04:18PM 42.5753 -83.2422 93° East 210 242 4,800 -885 Descending Cleveland Center
04:20PM 42.5436 -83.1675 120° Southeast 194 223 4,000 -410 Descending Cleveland Center
04:20PM 42.5022 -83.1631 175° South 185 213 4,000  Level Cleveland Center
04:22PM 42.4492 -83.2031 209° Southwest 178 205 4,000  Level Cleveland Center
04:23PM 42.4044 -83.2378 210° Southwest 176 203 4,000 -98 Level Cleveland Center
04:24PM 42.3622 -83.2669 207° Southwest 175 201 3,800 -194 Descending Cleveland Center